When you browse on this site, cookies collect data to enhance your experience and personalize the content and advertising you see.
Visit our Privacy Policy to learn more. By continuing to use the site, you agree to this use of cookies and data.
  • In France
  • List of Countries
  • For 7 days
  • Water Temperature
  • Satellite Maps
  • Weather Map
  • Weather Widgets
  • user-avatar
    Login

    Hourly Weather Vratsa

    Today, 25 May, Saturday

    Time Temperature Precipitation Wind Pressure Humidity
    00:00 +9°C° 0 mm 2 mps 705 mmHg 87%
    01:00 +9°C° 0 mm 2 mps 705 mmHg 87%
    02:00 +9°C° 0 mm 2 mps 705 mmHg 87%
    03:00 +9°C° 0 mm 2 mps 705 mmHg 87%
    04:00 +9°C° 0 mm 2 mps 705 mmHg 87%
    05:00 +9°C° 0 mm 3 mps 705 mmHg 87%
    06:00 +11°C° 0 mm 3 mps 706 mmHg 82%
    07:00 +13°C° 0 mm 3 mps 706 mmHg 77%
    08:00 +16°C° 0 mm 3 mps 707 mmHg 72%
    09:00 +17°C° 0 mm 3 mps 707 mmHg 68%
    10:00 +18°C° 0 mm 3 mps 707 mmHg 64%
    11:00 +19°C° 0 mm 3 mps 707 mmHg 59%
    12:00 +19°C° 0.3 mm 3 mps 707 mmHg 60%
    13:00 +20°C° 0.3 mm 3 mps 707 mmHg 60%
    14:00 +20°C° 0.3 mm 3 mps 707 mmHg 60%
    15:00 +20°C° 0.1 mm 3 mps 707 mmHg 61%
    16:00 +20°C° 0.1 mm 3 mps 707 mmHg 61%
    17:00 +20°C° 0.1 mm 3 mps 706 mmHg 62%
    18:00 +18°C° 0.1 mm 2 mps 707 mmHg 68%
    19:00 +17°C° 0.1 mm 2 mps 707 mmHg 75%
    20:00 +15°C° 0.1 mm 1 mps 707 mmHg 82%
    21:00 +14°C° 0 mm 1 mps 707 mmHg 83%
    22:00 +14°C° 0 mm 2 mps 707 mmHg 84%
    23:00 +13°C° 0 mm 2 mps 707 mmHg 85%

    Tomorrow, 26 May, Sunday

    Time Temperature Precipitation Wind Pressure Humidity
    00:00 +13°C° 0 mm 2 mps 707 mmHg 85%
    01:00 +12°C° 0 mm 2 mps 707 mmHg 85%
    02:00 +12°C° 0 mm 2 mps 707 mmHg 85%
    03:00 +12°C° 0 mm 2 mps 707 mmHg 84%
    04:00 +12°C° 0 mm 2 mps 707 mmHg 84%
    05:00 +10°C° 0 mm 2 mps 708 mmHg 83%
    06:00 +13°C° 0 mm 2 mps 708 mmHg 78%
    07:00 +16°C° 0 mm 1 mps 708 mmHg 73%
    08:00 +19°C° 0 mm 1 mps 709 mmHg 68%
    09:00 +20°C° 0 mm 1 mps 709 mmHg 62%
    10:00 +22°C° 0 mm 1 mps 709 mmHg 55%
    11:00 +22°C° 0 mm 0 mps 709 mmHg 49%
    12:00 +25°C° 0 mm 1 mps 709 mmHg 47%
    13:00 +25°C° 0 mm 1 mps 709 mmHg 46%
    14:00 +26°C° 0 mm 1 mps 709 mmHg 44%
    15:00 +25°C° 0 mm 1 mps 709 mmHg 47%
    16:00 +25°C° 0 mm 2 mps 709 mmHg 50%
    17:00 +25°C° 0 mm 2 mps 708 mmHg 53%
    18:00 +23°C° 0 mm 2 mps 708 mmHg 61%
    19:00 +21°C° 0 mm 1 mps 708 mmHg 69%
    20:00 +18°C° 0 mm 1 mps 708 mmHg 77%
    21:00 +18°C° 0 mm 1 mps 708 mmHg 78%
    22:00 +16°C° 0 mm 1 mps 708 mmHg 78%
    23:00 +16°C° 0 mm 2 mps 709 mmHg 79%

    Day after tomorrow, 27 May, Monday

    Time Temperature Precipitation Wind Pressure Humidity
    00:00 +15°C° 0 mm 2 mps 708 mmHg 77%
    01:00 +15°C° 0 mm 2 mps 708 mmHg 76%
    02:00 +15°C° 0 mm 2 mps 708 mmHg 75%
    03:00 +14°C° 0 mm 2 mps 708 mmHg 75%
    04:00 +14°C° 0 mm 2 mps 708 mmHg 75%
    05:00 +14°C° 0 mm 2 mps 708 mmHg 75%
    06:00 +16°C° 0 mm 2 mps 708 mmHg 72%
    07:00 +19°C° 0 mm 1 mps 709 mmHg 69%
    08:00 +21°C° 0 mm 1 mps 709 mmHg 66%
    09:00 +22°C° 0 mm 1 mps 709 mmHg 62%
    10:00 +24°C° 0 mm 2 mps 709 mmHg 58%
    11:00 +25°C° 0 mm 2 mps 709 mmHg 54%
    12:00 +26°C° 0 mm 2 mps 709 mmHg 53%
    13:00 +26°C° 0 mm 2 mps 709 mmHg 52%
    14:00 +27°C° 0 mm 3 mps 708 mmHg 51%
    15:00 +26°C° 0 mm 2 mps 708 mmHg 54%
    16:00 +26°C° 0 mm 2 mps 708 mmHg 58%
    17:00 +25°C° 0 mm 2 mps 708 mmHg 62%
    18:00 +24°C° 0 mm 2 mps 707 mmHg 64%
    19:00 +21°C° 0 mm 2 mps 707 mmHg 66%
    20:00 +20°C° 0 mm 2 mps 707 mmHg 69%
    21:00 +19°C° 0 mm 2 mps 706 mmHg 71%
    22:00 +18°C° 0 mm 2 mps 706 mmHg 72%
    23:00 +17°C° 0 mm 2 mps 706 mmHg 74%

    28 May, Tuesday

    Time Temperature Precipitation Wind Pressure Humidity
    00:00 +17°C° 0 mm 2 mps 706 mmHg 77%
    01:00 +16°C° 0 mm 2 mps 706 mmHg 80%
    02:00 +16°C° 0 mm 2 mps 706 mmHg 82%
    03:00 +15°C° 0 mm 2 mps 706 mmHg 81%
    04:00 +15°C° 0 mm 2 mps 705 mmHg 80%
    05:00 +14°C° 0 mm 2 mps 705 mmHg 79%
    06:00 +16°C° 0 mm 2 mps 705 mmHg 73%
    07:00 +18°C° 0 mm 2 mps 706 mmHg 67%
    08:00 +20°C° 0 mm 2 mps 706 mmHg 61%
    09:00 +23°C° 0 mm 2 mps 706 mmHg 54%
    10:00 +25°C° 0 mm 2 mps 706 mmHg 47%
    11:00 +26°C° 0 mm 3 mps 706 mmHg 41%
    12:00 +27°C° 0 mm 3 mps 705 mmHg 38%
    13:00 +28°C° 0 mm 3 mps 705 mmHg 36%
    14:00 +29°C° 0 mm 3 mps 705 mmHg 33%
    15:00 +29°C° 0 mm 3 mps 704 mmHg 37%
    16:00 +28°C° 0 mm 3 mps 704 mmHg 40%
    17:00 +28°C° 0 mm 3 mps 704 mmHg 44%
    18:00 +26°C° 0 mm 3 mps 704 mmHg 48%
    19:00 +22°C° 0 mm 3 mps 703 mmHg 52%
    20:00 +19°C° 0 mm 3 mps 703 mmHg 56%
    21:00 +19°C° 0 mm 3 mps 703 mmHg 58%
    22:00 +18°C° 0 mm 3 mps 704 mmHg 59%
    23:00 +17°C° 0 mm 3 mps 704 mmHg 61%

    29 May, Wednesday

    Time Temperature Precipitation Wind Pressure Humidity
    00:00 +17°C° 0 mm 2 mps 704 mmHg 63%
    01:00 +16°C° 0 mm 2 mps 704 mmHg 66%
    02:00 +15°C° 0 mm 2 mps 704 mmHg 69%
    03:00 +15°C° 0 mm 2 mps 704 mmHg 71%
    04:00 +15°C° 0 mm 2 mps 705 mmHg 74%
    05:00 +14°C° 0 mm 2 mps 705 mmHg 76%
    06:00 +16°C° 0 mm 2 mps 705 mmHg 73%
    07:00 +18°C° 0 mm 2 mps 706 mmHg 69%
    08:00 +20°C° 0 mm 2 mps 707 mmHg 66%
    09:00 +21°C° 0 mm 2 mps 707 mmHg 60%
    10:00 +24°C° 0 mm 2 mps 707 mmHg 54%
    11:00 +25°C° 0 mm 1 mps 707 mmHg 47%
    12:00 +26°C° 0 mm 1 mps 707 mmHg 46%
    13:00 +26°C° 0 mm 1 mps 707 mmHg 45%
    14:00 +27°C° 0 mm 1 mps 707 mmHg 44%
    15:00 +27°C° 0 mm 1 mps 707 mmHg 46%
    16:00 +27°C° 0 mm 1 mps 707 mmHg 47%
    17:00 +26°C° 0 mm 1 mps 707 mmHg 48%
    18:00 +24°C° 0 mm 1 mps 707 mmHg 54%
    19:00 +22°C° 0 mm 1 mps 707 mmHg 60%
    20:00 +20°C° 0 mm 1 mps 707 mmHg 66%
    21:00 +20°C° 0 mm 1 mps 708 mmHg 68%
    22:00 +19°C° 0 mm 1 mps 708 mmHg 70%
    23:00 +18°C° 0 mm 1 mps 708 mmHg 72%

    30 May, Thursday

    Time Temperature Precipitation Wind Pressure Humidity
    00:00 +18°C° 0 mm 1 mps 708 mmHg 73%
    01:00 +16°C° 0 mm 2 mps 708 mmHg 74%
    02:00 +16°C° 0 mm 2 mps 708 mmHg 75%
    03:00 +16°C° 0 mm 1 mps 708 mmHg 76%
    04:00 +15°C° 0 mm 1 mps 709 mmHg 76%
    05:00 +15°C° 0 mm 1 mps 709 mmHg 76%
    06:00 +18°C° 0 mm 1 mps 709 mmHg 71%
    07:00 +20°C° 0 mm 1 mps 710 mmHg 66%
    08:00 +22°C° 0 mm 1 mps 710 mmHg 61%
    09:00 +23°C° 0 mm 1 mps 710 mmHg 58%
    10:00 +24°C° 0 mm 1 mps 710 mmHg 55%
    11:00 +25°C° 0 mm 2 mps 710 mmHg 52%
    12:00 +25°C° 0.3 mm 2 mps 710 mmHg 54%
    13:00 +25°C° 0.3 mm 1 mps 709 mmHg 55%
    14:00 +26°C° 0.3 mm 1 mps 709 mmHg 56%
    15:00 +25°C° 0.7 mm 1 mps 709 mmHg 58%
    16:00 +25°C° 0.7 mm 1 mps 708 mmHg 60%
    17:00 +25°C° 0.7 mm 1 mps 708 mmHg 62%
    18:00 +23°C° 0.6 mm 1 mps 708 mmHg 67%
    19:00 +22°C° 0.6 mm 1 mps 708 mmHg 72%
    20:00 +20°C° 0.6 mm 1 mps 708 mmHg 77%
    21:00 +19°C° 0.4 mm 1 mps 708 mmHg 79%
    22:00 +18°C° 0.4 mm 1 mps 708 mmHg 81%
    23:00 +18°C° 0.4 mm 1 mps 708 mmHg 83%
    Show more